Погода в Кырлыке

Россия / Республика Алтай     50°48′21″N   84°56′51″E
темп.,
°C
ветер,
м/с
пор.,
м/с
влажн.,
%
обл.,
%
осадки,
мм/ч
давл.,
гПа
погр.,
м
18 мая, вт
вт1801:00+9ссз11865 1.8 101611
04:00+8з01925 0.0 101610
07:00+9ю12865 0.0 101673
10:00+14ююз33631 0.1 1013662
13:00+18зюз574690 0.7 10112325
16:00+17зсз354789 1.2 10111801
19:00+12ю237468 2.0 1012135
22:00+9ю228359 0.1 101359
19 мая, ср
ср1901:00+8ююз348874 0.1 101172
04:00+7ю468897 0.1 1009123
07:00+8ююз4685100 0.5 1007189
10:00+14юз476179 0.6 1005894
13:00+17зюз81152100 1.6 10032234
16:00+14з91566100 1.1 10031892
19:00+8св248896 2.6 1005457
22:00+7с1289100 0.2 1005168
20 мая, чт
чт2001:00+6ссз3494100 0.4 1005340
04:00+3ссз3697100 0.8 1005584
07:00+2ссз2499100 3.4 1006239
10:00+1ссз5996100 1.3 1007677
13:00−1с81176100 2.6 10121170
16:00+1ссз8115793 0.3 10131868
19:00+1с3459100 0.6 10151162
22:00−2с239078 1.7 1018295
21 мая, пт
пт2101:00−5ссз3891100 4.1 1021681
04:00−7ссз259997 0.1 1024210
07:00−6с269135 0.1 1026458
10:00−3с5672100 0.1 10261347
13:00−1с577095 0.4 10251412
16:00+1с6763100 0.8 10251690
19:000с556664 0.9 10271159
22:00−4ссз22925 0.0 103121
22 мая, сб
сб2201:00−4ю019220 0.0 103210
04:00−5ююв22909 0.0 103226
07:00−2ю237988 0.0 1031170
10:00+4ююз225198 0.0 1027579
13:00+8зюз223880 0.0 10241199
16:00+8с1241100 0.0 1022967
19:00+3ссз118699 0.5 1027287
22:00+2ссв1197100 0.1 1029100